Tracking 28126 objects as of 2-Oct-2023
HD Live streaming from Space Station
objects crossing your sky now

STARLINK-4179

Track STARLINK-4179 now!
10-day predictions
STARLINK-4179 is classified as:


NORAD ID: 53275
Int'l Code: 2022-086AK
Perigee: 546.0 km
Apogee: 547.8 km
Inclination: 53.2 °
Period: 95.4 minutes
Semi major axis: 6917 km
RCS: Unknown
Launch date: July 24, 2022
Source: United States (US)
Launch site: AIR FORCE EASTERN TEST RANGE (AFETR)
Your satellite tracking list
Your tracking list is empty




NASA's NSSDC Master Catalog

Two Line Element Set (TLE):
1 53275U 22086AK  23274.82302639  .00003314  00000-0  22619-3 0  9995
2 53275  53.2155 218.8886 0001260  88.8614 271.2522 15.08840026 66850
Source of the keplerian elements: AFSPC